{"data":{"norad_id":54176,"intl_designator":"2022-141V","name":"STARLINK-5154","alt_names":[],"object_type":"PAYLOAD","status":"ACTIVE","operator":null,"country":"US","launch_date":"2022-10-28","launch_site_code":"AFWTR","launch_vehicle":null,"mission":null,"orbit_class":"UNKNOWN","rcs_meters":null,"size_class":null,"mass_kg":null,"dimensions":null,"purposes":["comms"],"wikipedia_slug":null,"has_3d_model":false,"image_url":null,"decayed_at":null,"tle_current":{"epoch":"2026-09-20T12:50:09.356928Z","epoch_age_seconds":86909,"freshness":"FRESH","line1":"1 54176U 22141V   26263.53483052 -.00000577  00000+0 -59382-5 0  9994","line2":"2 54176  53.1608 193.2580 0001528  86.0347 274.0830 15.34385244215494","mean_motion":15.34385244,"eccentricity":0.0001528,"inclination_deg":53.1608,"raan_deg":193.258,"arg_perigee_deg":86.0347,"mean_anomaly_deg":274.083,"bstar":-5.9382e-6,"rev_number":21549,"period_min":93.848660604038,"perigee_km":461.70181141002,"apogee_km":463.79238559052,"semimajor_km":6840.8840985003,"source":"CELESTRAK","updated_at":"2026-09-21T09:00:33.091563Z"}}}